Flag for Germany Past Weather in Weiden in der Oberpfalz, Bavaria, Germany — Yesterday and Last 2 Weeks

Now
63 °F

Clear.


Feels Like: 63 °F
Forecast: 54 / 76 °F
Wind: No wind

Location: Grafenwoehr

Current Time: Jul 27, 2016 at 11:20:59 PM

Latest Report: Jul 27, 2016 at 10:58 PM


Visibility: N/A

Pressure: 30.01 "Hg

Humidity: 94%

Dew Point: 61 °F

Location of Weiden in der OberpfalzLocation

Past Weather in Weiden in der Oberpfalz — Graph

°F

Weiden in der Oberpfalz Temperature Yesterday

Maximum temperature yesterday: 77 °F (at 3:58 PM)
Minimum temperature yesterday: 63 °F (at 1:58 AM)
Average temperature yesterday: 69 °F

High & Low Weather Summary for the Past Weeks

 TemperatureHumidityPressure
High86 °F (Jul 20, 4:58 PM)100% (Jul 12, 11:58 PM)30.31 "Hg (Jul 12, 11:58 PM)
Low46 °F (Jul 15, 12:58 AM)32% (Jul 19, 3:58 PM)29.85 "Hg (Jul 13, 1:58 PM)
Average65 °F79%30.06 "Hg
* Reported Jul 12 9:58 PM — Jul 27 9:58 PM, Weiden in der Oberpfalz, Weather by CustomWeather, © 2016

Note: Actual official high and low records may vary slightly from our data, if they occured in-between our weather recording intervals... More about our weather records

Advertising

Weiden in der Oberpfalz Weather History for the Previous 24 Hours

Scroll right to see more
 ConditionsComfort  
Time TempWeatherWind HumidityBarometerVisibility
9:58 PM
Wed, Jul 27
64 °FSunny.No wind88%30.01 "HgN/A
8:58 PM66 °FPassing clouds.No wind83%29.99 "HgN/A
7:58 PM70 °FBroken clouds.2 mph73%29.98 "HgN/A
6:58 PM73 °FScattered clouds.1 mph78%29.96 "HgN/A
5:58 PM73 °FScattered clouds.1 mph69%29.96 "HgN/A
5:04 PM72 °FScattered clouds.3 mph78%29.98 "Hg2 mi
4:58 PM72 °FBroken clouds.5 mph78%29.96 "Hg1 mi
3:58 PM70 °FScattered clouds.3 mph83%29.98 "HgN/A
2:58 PM72 °FThundershowers. Scattered clouds.9 mph78%29.97 "HgN/A
1:58 PM77 °FScattered clouds.9 mph61%29.96 "HgN/A
12:58 PM77 °FPartly sunny.7 mph65%29.98 "Hg1 mi
12:02 PM73 °FScattered clouds.5 mph74%30.05 "Hg2 mi
11:58 AM73 °FScattered clouds.3 mph74%30.01 "Hg2 mi
11:03 AM72 °FScattered clouds.1 mph78%30.05 "Hg2 mi
10:58 AM72 °FHaze.1 mph78%30.02 "Hg2 mi
9:58 AM68 °FFog.2 mph100%30.03 "Hg2 mi
8:58 AM66 °FFog.No wind100%30.03 "Hg2 mi
7:58 AM63 °FFog.No wind100%30.04 "Hg1 mi
4:55 AM61 °FFog.No wind100%30.06 "Hg1 mi
2:59 AM61 °FFog.No wind100%30.09 "Hg1 mi
2:56 AM61 °FFog.No wind100%30.09 "Hg1 mi
2:53 AM61 °FFog.No wind100%30.09 "Hg2 mi
1:58 AM60 °FFog.No wind100%30.06 "Hg6 mi
12:58 AM61 °FFog.No wind100%30.08 "Hg5 mi
11:58 PM
Tue, Jul 26
63 °FPassing clouds.No wind100%30.08 "HgN/A
Weather by CustomWeather, © 2016

See weather overviewHow to use our weather pages